Terminal Aerodrome Forecast
Issued by NWS

Home | Current Version | Previous Version | Text Only | Print | Product List | Glossary Off
Versions: 1 2 3 4 5 6 7 8 9 10 11 12 13

000
FTUS43 KICT 261140
TAFRSL
TAF
KRSL 261140Z 2612/2712 17009KT P6SM SCT030
     FM261800 17017KT P6SM BKN130=

USA.gov is the U.S. government's official web portal to all federal, state and local government web resources and services.